"Pseudo-MPEC" for GG0393

Created 2023 Sep 27 2:22:10 UT using Find_Orb

Click here for an explanation of pseudo-MPECs

 
 Astrometry: 
     GG0393 *MC2023 09 15/DX0XJ]/:c+ETgTdV*]%gKi'YAstrometrylaX_3A*redacted;EQ62
     GG0393  MC2023 09 15QIhclick%=+09Rherep#bEforZmq#tPo\b/explanationI]mHhcQ62

Station data:
(Q62) iTelescope Observatory, Siding Spring  (S31.273286 E149.064420)
   Australia/NSW.  Observers H. Sato, T. Prystavski, M. Mattiazzo, A. Pearce,
   F. D. Romanov. 0.51-m f/6.8 astrograph + CCD + f/4.5 focal reducer0.43-m
   f/6.8 astrograph + CCD + focal reducer0.43-m f/6.8 astrograph + CCD0.10-m
   f/5 astrograph + CCD0.127-m f/5.6 refractor + CCD0.50-m f/6.8 reflector +
   CCD0.30-m f/9 reflector + CCD.

Orbital elements:  GG0393
   Perihelion 2023 Dec 22.20807 +/- 65.4 TT =  4:59:37 (JD 2460300.70807)
Epoch 2023 Sep 15.0 TT = JDT 2460202.5   Earth MOID: 0.0692   Me: 0.0948
M 181.49171237 +/- 110              (J2000 ecliptic)             AutoNEOCP
n   1.81765396 +/- 1.07             Peri.  176.27932 +/- 100
a   0.66495957 +/- 0.262            Node   336.17795 +/- 57
e   0.6301173 +/- 0.239             Incl.   43.98796 +/- 58
P   0.54/198.05d           H 18.72  G  0.15   U 12.8  SR
q 0.24595698 +/- 0.42    Q 1.08396216 +/- 13.6
From 2 observations 2023 Sept. 15 (14.5 min); mean residual 0".01
Residuals in arcseconds: 
230915 Q62  .01+  .00     230915 Q62  .01+  .00     

Ephemerides (geocentric):
Date (UTC) HH   RA             Dec           delta  r     elong  mag " sig PA
---- --------  ------------   ------------  ------ ------ -----  --- --------
2023 09 27 02  17 57 05.668   -18 12 28.79  .45390 1.0707  85.9 19.6 491' 160
2023 09 27 03  17 57 08.281   -18 10 33.79  .45432 1.0706  85.9 19.6 495' 160
2023 09 27 04  17 57 10.891   -18 08 39.00  .45473 1.0705  85.9 19.6 499' 160
2023 09 27 05  17 57 13.498   -18 06 44.42  .45515 1.0705  85.8 19.6 503' 160
2023 09 27 06  17 57 16.102   -18 04 50.05  .45557 1.0704  85.8 19.6 508' 160
2023 09 27 07  17 57 18.703   -18 02 55.88  .45598 1.0703  85.8 19.6 512' 160
2023 09 27 08  17 57 21.301   -18 01 01.92  .45640 1.0702  85.7 19.6 516' 160
2023 09 27 09  17 57 23.897   -17 59 08.17  .45682 1.0701  85.7 19.6 520' 160
2023 09 27 10  17 57 26.489   -17 57 14.62  .45723 1.0700  85.7 19.6 524' 160
2023 09 27 11  17 57 29.079   -17 55 21.27  .45765 1.0699  85.7 19.6 529' 160
2023 09 27 12  17 57 31.665   -17 53 28.13  .45807 1.0698  85.6 19.6 533' 160
2023 09 27 13  17 57 34.249   -17 51 35.19  .45848 1.0698  85.6 19.6 537' 160
2023 09 27 14  17 57 36.830   -17 49 42.46  .45890 1.0697  85.6 19.6 541' 160
2023 09 27 15  17 57 39.408   -17 47 49.92  .45932 1.0696  85.5 19.6 546' 159
2023 09 27 16  17 57 41.984   -17 45 57.59  .45973 1.0695  85.5 19.6 550' 159
2023 09 27 17  17 57 44.556   -17 44 05.46  .46015 1.0694  85.5 19.6 554' 159
2023 09 27 18  17 57 47.126   -17 42 13.53  .46056 1.0693  85.4 19.6 558' 159
2023 09 27 19  17 57 49.693   -17 40 21.79  .46098 1.0692  85.4 19.6 563' 159
2023 09 27 20  17 57 52.257   -17 38 30.26  .46140 1.0691  85.4 19.6 567' 159
2023 09 27 21  17 57 54.818   -17 36 38.93  .46181 1.0690  85.4 19.6 571' 159
2023 09 27 22  17 57 57.377   -17 34 47.79  .46223 1.0689  85.3 19.6 576' 159
2023 09 27 23  17 57 59.933   -17 32 56.85  .46265 1.0689  85.3 19.6 580' 159
2023 09 28 00  17 58 02.486   -17 31 06.11  .46306 1.0688  85.3 19.6 585' 159
2023 09 28 01  17 58 05.036   -17 29 15.57  .46348 1.0687  85.2 19.6 589' 159
2023 09 28 02  17 58 07.583   -17 27 25.22  .46389 1.0686  85.2 19.6 593' 159
2023 09 28 03  17 58 10.128   -17 25 35.06  .46431 1.0685  85.2 19.6 598' 159
2023 09 28 04  17 58 12.670   -17 23 45.10  .46472 1.0684  85.1 19.6 602' 159
2023 09 28 05  17 58 15.209   -17 21 55.34  .46514 1.0683  85.1 19.6 607' 158
2023 09 28 06  17 58 17.746   -17 20 05.77  .46556 1.0682  85.1 19.6 611' 158
2023 09 28 07  17 58 20.280   -17 18 16.39  .46597 1.0681  85.0 19.6 615' 158
2023 09 28 08  17 58 22.811   -17 16 27.20  .46639 1.0680  85.0 19.6 620' 158
2023 09 28 09  17 58 25.339   -17 14 38.21  .46680 1.0679  85.0 19.6 624' 158
2023 09 28 10  17 58 27.865   -17 12 49.41  .46722 1.0678  85.0 19.6 629' 158
2023 09 28 11  17 58 30.388   -17 11 00.80  .46763 1.0677  84.9 19.6 633' 158
2023 09 28 12  17 58 32.908   -17 09 12.38  .46805 1.0676  84.9 19.6 638' 158
2023 09 28 13  17 58 35.426   -17 07 24.14  .46846 1.0675  84.9 19.6 642' 158
2023 09 28 14  17 58 37.941   -17 05 36.10  .46888 1.0674  84.8 19.7 647' 158
2023 09 28 15  17 58 40.453   -17 03 48.25  .46929 1.0673  84.8 19.7 651' 158
2023 09 28 16  17 58 42.963   -17 02 00.59  .46971 1.0673  84.8 19.7 656' 158
2023 09 28 17  17 58 45.470   -17 00 13.11  .47012 1.0672  84.7 19.7 660' 157
2023 09 28 18  17 58 47.974   -16 58 25.82  .47054 1.0671  84.7 19.7 665' 157
2023 09 28 19  17 58 50.476   -16 56 38.72  .47095 1.0670  84.7 19.7 669' 157
2023 09 28 20  17 58 52.975   -16 54 51.80  .47137 1.0669  84.7 19.7 673' 157
2023 09 28 21  17 58 55.472   -16 53 05.07  .47178 1.0668  84.6 19.7 678' 157
2023 09 28 22  17 58 57.966   -16 51 18.52  .47220 1.0667  84.6 19.7 682' 157
2023 09 28 23  17 59 00.457   -16 49 32.16  .47261 1.0666  84.6 19.7 687' 157
2023 09 29 00  17 59 02.946   -16 47 45.98  .47303 1.0665  84.5 19.7 691' 157
2023 09 29 01  17 59 05.432   -16 45 59.99  .47344 1.0664  84.5 19.7 696' 157